CAPE
0 0 0 0 0 0 0 0 0 0 0 0 0 0 0 0 0 0 0 0 0 0 0 0 0 0 0 0 0 0 0 0 0 0 0 0 0 0 0 0 0 0 0 0
0 0 0 0 0 0 0 0 0 0 0 0 0 0 0 0 0 0 0 0 0 0 0 0 0 0 0 0 0 0 0 0 0 0 0 0 0 0 0 0 0 0 0 0
0 0 0 0 0 0 0 0 0 0 0 0 0 0 0 0 0 0 0 0 0 0 0 0 0 0 0 0 0 0 0 0 0 0 0 0 0 0 0 0 0 0 0 0
0 0 0 0 0 0 0 0 0 0 0 0 0 0 0 0 0 0 0 0 0 0 0 0 0 0 0 0 0 0 0 0 0 0 0 0 0 0 0 0 0 0 0 0
0 0 0 0 0 0 0 0 0 0 0 0 0 0 0 0 0 0 0 0 0 0 0 0 0 0 0 0 0 0 0 0 0 0 0 0 0 0 0 0 0 0 0 0
0 0 0 0 0 0 0 0 0 0 0 0 0 0 0 0 0 0 0 0 0 0 0 0 0 0 0 0 0 0 0 0 0 0 0 0 0 0 0 0 0 0 0 0
0 0 0 0 0 0 0 0 0 0 0 0 0 0 0 0 0 0 0 0 0 0 0 0 0 0 0 0 0 0 0 0 0 0 0 0 0 0 0 0 0 0 0 0
0 0 0 0 0 0 0 0 0 0 0 0 0 0 0 0 0 0 0 0 0 0 0 0 0 0 0 0 0 0 0 0 0 0 0 0 0 0 0 0 0 0 0 0
0 0 0 0 0 0 0 0 0 0 0 0 0 0 0 0 0 0 0 0 0 0 0 0 0 0 0 0 0 0 0 0 0 0 0 0 0 0 0 0 0 0 0 0
0 0 0 0 0 0 0 0 0 0 0 0 0 0 0 0 0 0 0 0 0 0 0 0 0 0 0 0 0 0 0 0 0 0 0 0 0 0 0 0 0 0 0 0
0 0 0 0 0 0 0 0 0 0 0 0 0 0 0 0 0 0 0 0 0 0 0 0 0 0 0 0 0 0 0 0 0 0 0 0 0 0 0 0 0 0 0 0
0 0 0 0 0 0 0 0 0 0 0 0 0 0 0 0 0 0 0 0 0 0 0 0 0 0 0 0 0 0 0 0 0 0 0 0 0 0 0 0 0 0 0 0
0 0 0 0 0 0 0 0 0 0 0 0 0 0 0 0 0 0 0 0 0 0 0 0 0 0 0 0 0 0 0 0 0 0 0 0 0 0 0 0 0 0 0 0
0 0 0 0 0 0 0 0 0 0 0 0 0 0 0 0 0 0 0 0 0 0 0 0 0 0 0 0 0 0 0 0 0 0 0 0 0 0 0 0 0 0 0 0
0 0 0 0 0 0 0 0 0 0 0 0 0 0 0 0 0 0 0 0 0 0 0 0 0 0 0 0 0 0 0 0 0 0 0 0 0 0 0 0 0 0 0 0
0 0 0 0 0 0 0 0 0 0 0 0 0 0 0 0 0 0 0 0 0 0 0 0 0 0 0 0 0 0 0 0 0 0 0 0 0 0 0 0 0 0 0 0
0 0 0 0 0 0 0 0 0 0 0 0 0 0 0 0 0 0 0 0 0 0 0 0 0 0 0 0 0 0 0 0 0 0 0 0 0 0 0 0 0 0 0 0
0 0 0 0 0 0 0 0 0 0 0 0 0 0 0 0 0 0 0 0 0 0 0 0 0 0 0 0 0 0 0 0 0 0 0 0 0 0 0 0 0 0 0 0
0 0 0 0 0 0 0 0 0 0 0 0 0 0 0 0 0 0 0 0 0 0 0 0 0 0 0 0 0 0 0 0 0 0 0 0 0 0 0 0 0 0 0 0
0 0 0 0 0 0 0 0 0 0 0 0 0 0 1 1 0 0 0 0 0 0 0 0 0 0 0 0 0 0 0 0 0 0 0 0 0 0 0 0 0 0 0 0
0 0 0 0 0 0 0 0 0 0 0 0 0 1 0 1 1 1 0 0 0 0 0 0 0 0 0 0 0 0 0 0 0 0 0 0 0 0 0 0 0 0 0 0
0 0 0 0 0 0 0 0 0 0 0 0 0 0 0 1 1 1 0 0 0 0 0 0 0 0 0 0 0 0 0 0 0 0 0 0 0 0 0 0 0 0 0 0
0 0 0 0 0 0 0 0 0 0 0 0 0 0 0 0 1 1 0 0 0 0 0 0 0 0 0 0 0 0 0 0 0 0 0 0 0 0 0 0 0 0 0 0
0 0 0 0 0 0 0 0 0 0 0 0 0 0 0 0 1 2 0 0 0 0 0 0 0 0 0 0 0 0 0 0 0 0 0 0 0 0 0 0 0 0 0 0
0 0 0 0 0 0 0 0 0 0 0 0 0 0 0 0 0 0 1 1 0 0 0 0 0 0 0 0 0 0 0 0 0 0 0 0 0 0 0 0 0 0 0 0
0 0 0 0 0 0 0 0 0 0 0 0 0 0 0 0 0 0 1 0 0 0 0 0 0 0 0 0 0 0 0 0 0 0 0 0 0 0 0 0 0 0 0 0
CIN
-0 -0 -0 -0 -0 -0 -0 -0 -0 -0 -0 -0 -0 -0 -0 -0 -0 -0 -0 -0 -0 -0 -0 -0 -0 -0 -0 -0 -0 -0 -0 -0 -0 -0 -0 -0 -0 -0 -0 -0 -0 -0 -0 -0
-0 -0 -0 -0 -0 -0 -0 -0 -0 -0 -0 -0 -0 -0 -0 -0 -0 -0 -0 -0 -0 -0 -0 -0 -0 -0 -0 -0 -0 -0 -0 -0 -0 -0 -0 -0 -0 -0 -0 -0 -0 -0 -0 -0
-0 -0 -0 -0 -0 -0 -0 -0 -0 -0 -0 -0 -0 -0 -0 -0 -0 -0 -0 -0 -0 -0 -0 -0 -0 -0 -0 -0 -0 -0 -0 -0 -0 -0 -0 -0 -0 -0 -0 -0 -0 -0 -0 -0
-0 -0 -0 -0 -0 -0 -0 -0 -0 -0 -0 -0 -0 -0 -0 -0 -0 -0 -0 -0 -0 -0 -0 -0 -0 -0 -0 -0 -0 -0 -0 -0 -0 -0 -0 -0 -0 -0 -0 -0 -0 -0 -0 -0
-0 -0 -0 -0 -0 -0 -0 -0 -0 -0 -0 -0 -0 -0 -0 -0 -0 -0 -0 -0 -0 -0 -0 -0 -0 -0 -0 -0 -0 -0 -0 -0 -0 -0 -0 -0 -0 -0 -0 -0 -0 -0 -0 -0
-0 -0 -0 -0 -0 -0 -0 -0 -0 -0 -0 -0 -0 -0 -0 -0 -0 -0 -0 -0 -0 -0 -0 -0 -0 -0 -0 -0 -0 -0 -0 -0 -0 -0 -0 -0 -0 -0 -0 -0 -0 -0 -0 -0
-0 -0 -0 -0 -0 -0 -0 -0 -0 -0 -0 -0 -0 -0 -0 -0 -0 -0 -0 -0 -0 -0 -0 -0 -0 -0 -0 -0 -0 -0 -0 -0 -0 -0 -0 -0 -0 -0 -0 -0 -0 -0 -0 -0
-0 -0 -0 -0 -0 -0 -0 -0 -0 -0 -0 -0 -0 -0 -0 -0 -0 -0 -0 -0 -0 -0 -0 -0 -0 -0 -0 -0 -0 -0 -0 -0 -0 -0 -0 -0 -0 -0 -0 -0 -0 -0 -0 -0
-0 -0 -0 -0 -0 -0 -0 -0 -0 -0 -0 -0 -0 -0 -0 -0 -0 -0 -0 -0 -0 -0 -0 -0 -0 -0 -0 -0 -0 -0 -0 -0 -0 -0 -0 -0 -0 -0 -0 -0 -0 -0 -0 -0
-0 -0 -0 -0 -0 -0 -0 -0 -0 -0 -0 -0 -0 -0 -0 -0 -0 -0 -0 -0 -0 -0 -0 -0 -0 -0 -0 -0 -0 -0 -0 -0 -0 -0 -0 -0 -0 -0 -0 -0 -0 -0 -0 -0
-0 -0 -0 -0 -0 -0 -0 -0 -0 -0 -0 -0 -0 -0 -0 -0 -0 -0 -0 -0 -0 -0 -0 -0 -0 -0 -0 -0 -0 -0 -0 -0 -0 -0 -0 -0 -0 -0 -0 -0 -0 -0 -0 -0
-0 -0 -0 -0 -0 -0 -0 -0 -0 -0 -0 -0 -0 -0 -0 -0 -0 -0 -0 -0 -0 -0 -0 -0 -0 -0 -0 -0 -0 -0 -0 -0 -0 -0 -0 -0 -0 -0 -0 -0 -0 -0 -0 -0
-0 -0 -0 -0 -0 -0 -0 -0 -0 -0 -0 -0 -0 -0 -0 -0 -0 -0 -0 -0 -0 -0 -0 -0 -0 -0 -0 -0 -0 -0 -0 -0 -0 -0 -0 -0 -0 -0 -0 -0 -0 -0 -0 -0
-0 -0 -0 -0 -0 -0 -0 -0 -0 -0 -0 -0 -0 -0 -0 -0 -0 -0 -0 -0 -0 -0 -0 -0 -0 -0 -0 -0 -0 -0 -0 -0 -0 -0 -0 -0 -0 -0 -0 -0 -0 -0 -0 -0
-0 -0 -0 -0 -0 -0 -0 -0 -0 -0 -0 -0 -0 -0 -0 -0 -0 -0 -0 -0 -0 -0 -0 -0 -0 -0 -0 -0 -0 -0 -0 -0 -0 -0 -0 -0 -0 -0 -0 -0 -0 -0 -0 -0
-0 -0 -0 -0 -0 -0 -0 -0 -0 -0 -0 -0 -0 -0 -0 -0 -0 -0 -0 -0 -0 -0 -0 -0 -0 -0 -0 -0 -0 -0 -0 -0 -0 -0 -0 -0 -0 -0 -0 -0 -0 -0 -0 -0
-0 -0 -0 -0 -0 -0 -0 -0 -0 -0 -0 -0 -0 -0 -0 -0 -0 -0 -0 -0 -0 -0 -0 -0 -0 -0 -0 -0 -0 -0 -0 -0 -0 -0 -0 -0 -0 -0 -0 -0 -0 -0 -0 -0
-0 -0 -0 -0 -0 -0 -0 -0 -0 -0 -0 -0 -0 -0 -0 -0 -0 -0 -0 -0 -0 -0 -0 -0 -0 -0 -0 -0 -0 -0 -0 -0 -0 -0 -0 -0 -0 -0 -0 -0 -0 -0 -0 -0
-0 -0 -0 -0 -0 -0 -0 -0 -0 -0 -0 -0 -0 -0 -0 -0 -0 -0 -0 -0 -0 -0 -0 -0 -0 -0 -0 -0 -0 -0 -0 -0 -0 -0 -0 -0 -0 -0 -0 -0 -0 -0 -0 -0
-0 -0 -0 -0 -0 -0 -0 -0 -0 -0 -0 -0 -0 -0 -0 -0 -0 -0 -0 -0 -0 -0 -0 -0 -0 -0 -0 -0 -0 -0 -0 -0 -0 -0 -0 -0 -0 -0 -0 -0 -0 -0 -0 -0
-0 -0 -0 -0 -0 -0 -0 -0 -0 -0 -0 -0 -0 -0 -0 -0 -0 -0 -0 -0 -0 -0 -0 -0 -0 -0 -0 -0 -0 -0 -0 -0 -0 -0 -0 -0 -0 -0 -0 -0 -0 -0 -0 -0
-0 -0 -0 -0 -0 -0 -0 -0 -0 -0 -0 -0 -0 -0 -0 -0 -0 -0 -0 -0 -0 -0 -0 -0 -0 -0 -0 -0 -0 -0 -0 -0 -0 -0 -0 -0 -0 -0 -0 -0 -0 -0 -0 -0
-0 -0 -0 -0 -0 -0 -0 -0 -0 -0 -0 -0 -0 -0 -0 -0 -0 -0 -0 -0 -0 -0 -0 -0 -0 -0 -0 -0 -0 -0 -0 -0 -0 -0 -0 -0 -0 -0 -0 -0 -0 -0 -0 -0
-0 -0 -0 -0 -0 -0 -0 -0 -0 -0 -0 -0 -0 -0 -0 -0 -0 -0 -0 -0 -0 -0 -0 -0 -0 -0 -0 -0 -0 -0 -0 -0 -0 -0 -0 -0 -0 -0 -0 -0 -0 -0 -0 -0
-0 -0 -0 -0 -0 -0 -0 -0 -0 -0 -0 -0 -0 -0 -0 -0 -0 -0 -0 -0 -0 -0 -0 -0 -0 -0 -0 -0 -0 -0 -0 -0 -0 -0 -0 -0 -0 -0 -0 -0 -0 -0 -0 -0
-0 -0 -0 -0 -0 -0 -0 -0 -0 -0 -0 -0 -0 -0 -0 -0 -0 -0 -0 -0 -0 -0 -0 -0 -0 -0 -0 -0 -0 -0 -0 -0 -0 -0 -0 -0 -0 -0 -0 -0 -0 -0 -0 -0
Wind_Speed
20 24 29 27 26 29 31 33 36 32 28 31 35 40 42 40 36 44 46 48 46 45 43 42 40 32 26 23 19 16 14 12 10 12 12 14 13 13 14 15 16 18 20 22
23 30 27 23 25 30 34 39 43 40 35 33 40 46 49 47 44 45 48 48 51 50 45 37 37 29 24 21 20 18 16 13 11 10 13 14 11 13 13 14 15 19 20 22
23 24 20 22 25 29 32 36 39 40 36 36 42 48 43 37 37 40 42 46 47 48 47 43 32 26 25 23 20 19 18 15 12 10 9 10 11 12 13 14 16 19 20 21
18 18 24 27 30 27 36 30 33 36 35 39 29 48 42 38 38 37 40 40 44 43 40 37 30 23 23 22 21 20 18 15 12 10 9 8 9 10 12 13 15 17 19 21
21 19 18 22 24 20 29 26 29 31 34 37 35 41 39 33 37 40 38 35 38 38 37 34 27 22 23 23 22 21 19 16 13 11 9 9 9 11 10 13 15 17 19 21
18 19 20 16 18 17 23 25 27 28 32 45 38 38 42 33 33 35 31 28 30 33 34 35 31 26 23 22 22 20 19 16 14 12 11 9 8 7 9 12 14 16 18 19
27 22 20 16 18 18 20 25 34 37 38 47 34 40 46 39 38 36 38 35 31 28 28 31 29 25 23 22 21 20 19 17 15 13 11 9 8 8 9 10 13 15 17 19
30 30 21 18 18 20 15 21 28 39 39 40 34 41 32 31 35 34 34 33 32 32 31 29 29 28 26 24 23 22 20 19 16 14 11 10 9 9 10 11 12 14 16 18
30 29 23 22 20 19 21 21 23 31 34 43 42 41 40 38 35 28 27 27 29 30 31 32 28 27 25 25 24 22 21 19 16 14 12 11 10 9 10 11 12 12 14 16
28 36 27 26 22 22 22 20 24 26 37 42 39 41 40 35 29 25 27 26 26 26 28 30 29 26 25 25 24 22 21 19 17 14 12 11 10 10 10 10 10 12 13 14
30 31 32 28 26 26 24 25 24 24 30 39 44 39 26 26 26 26 26 24 24 24 26 26 27 25 23 23 23 22 20 18 16 14 13 12 11 10 10 10 10 11 11 13
29 33 41 36 32 30 28 30 26 32 33 35 41 52 38 41 33 28 24 26 29 31 32 28 25 24 22 21 22 22 20 18 16 14 13 12 11 11 10 10 9 9 10 12
32 32 44 42 31 28 30 30 31 35 35 50 48 50 25 25 29 29 32 40 37 34 32 29 27 25 24 22 22 21 20 18 17 15 14 13 12 11 10 10 9 10 11 12
29 33 38 45 40 36 40 41 40 36 42 45 58 58 48 50 51 50 46 39 38 39 33 31 29 30 25 23 21 20 20 19 17 15 15 14 12 11 11 10 11 11 12 12
31 41 39 43 43 45 50 52 48 46 44 48 59 55 47 47 47 49 46 47 45 42 40 35 32 29 29 26 23 23 22 19 17 16 15 15 13 12 12 11 12 12 13 14
31 44 40 52 45 44 51 49 48 54 52 58 58 68 53 53 50 49 50 50 48 46 44 41 37 31 28 28 26 24 23 21 19 18 18 16 14 13 13 12 12 14 14 15
37 40 42 55 43 46 57 48 51 54 53 58 63 62 53 54 53 53 52 48 49 50 48 47 43 38 31 28 26 25 23 22 21 19 18 16 15 14 13 13 14 15 15 16
40 40 40 52 43 57 41 41 46 50 49 44 46 46 45 46 48 50 48 49 50 48 48 47 46 40 34 30 26 24 23 22 21 20 18 16 15 15 14 15 16 17 17 17
33 36 41 45 48 50 50 43 37 42 50 37 42 44 45 46 48 44 31 32 38 41 43 44 42 41 34 29 27 25 24 22 20 19 18 17 15 15 15 16 16 17 18 18
25 25 33 37 47 54 42 39 38 38 53 37 38 43 45 44 48 45 39 46 49 46 43 41 39 37 34 29 25 25 24 22 21 20 19 18 16 15 16 16 16 17 19 19
26 27 33 39 44 44 38 34 36 46 44 43 40 42 43 44 45 51 50 49 46 43 42 39 36 36 35 29 26 26 23 23 22 21 19 19 17 17 17 17 18 18 18 20
30 28 30 32 39 48 31 31 39 41 43 42 44 43 44 46 47 46 45 43 39 38 38 35 33 31 29 26 28 30 27 23 22 21 20 20 18 18 17 18 19 19 19 20
25 20 29 26 31 32 31 38 37 38 40 38 43 43 43 45 45 43 41 39 35 33 32 29 27 27 26 25 27 30 31 28 24 24 23 20 18 20 19 19 19 19 19 20
30 22 26 29 38 42 37 36 40 38 40 38 41 42 40 43 42 41 38 35 30 26 24 22 21 21 23 22 23 24 23 22 23 24 25 24 22 21 20 20 20 20 19 20
27 22 26 32 39 42 43 40 40 38 38 41 41 39 39 41 41 38 37 33 27 23 19 17 16 16 17 18 19 19 19 19 20 22 22 23 22 21 21 21 20 20 21 19
18 17 30 41 43 42 46 43 42 39 40 40 41 37 38 38 39 37 35 29 25 21 19 17 15 14 14 14 16 18 19 20 21 21 21 21 21 22 23 24 25 24 23 20
Wind_Direction
305 292 285 285 283 282 285 284 282 289 297 292 284 278 271 273 276 266 260 255 253 251 252 251 249 249 245 241 233 227 229 236 244 267 279 287 291 301 311 321 328 331 332 333
303 290 295 295 289 283 281 279 277 284 289 287 283 276 267 263 271 268 260 256 248 248 252 255 249 247 235 229 228 225 227 226 237 257 279 288 294 301 311 321 328 331 333 335
304 304 311 299 293 287 283 279 280 279 289 288 284 275 277 276 274 271 266 259 255 250 249 249 251 244 235 229 222 221 225 221 231 250 272 290 301 306 309 317 324 329 334 337
332 326 305 296 290 289 283 287 285 281 283 279 293 273 278 278 273 275 271 265 257 254 253 251 248 240 223 228 231 228 225 221 228 237 253 264 283 295 308 318 326 331 335 337
328 332 328 313 303 297 289 293 287 286 282 282 281 277 275 285 276 270 275 273 262 257 252 250 246 238 236 233 228 230 226 226 229 232 247 263 281 298 311 319 326 330 334 338
319 326 325 326 322 309 303 298 293 288 282 272 277 276 273 284 282 278 285 284 274 265 257 252 250 245 236 233 231 227 222 223 225 232 248 258 266 286 305 317 326 331 335 340
316 318 322 323 317 316 303 294 284 278 273 268 279 273 269 272 278 278 279 278 275 275 267 255 248 241 235 225 226 226 221 222 228 236 246 253 263 280 300 316 326 331 334 340
305 303 319 322 312 313 311 298 285 276 273 273 280 267 277 287 281 283 285 282 279 273 267 263 254 247 240 231 227 226 222 225 228 234 239 251 263 280 299 314 325 331 337 342
303 299 311 311 314 313 308 298 298 287 285 274 271 272 281 281 281 292 294 297 286 280 271 261 260 252 245 236 227 222 220 225 225 231 238 247 259 274 295 312 323 331 339 344
304 294 301 302 303 302 300 310 298 288 278 272 271 271 273 280 286 297 299 299 300 296 286 268 262 259 251 241 234 227 222 216 222 229 236 241 253 273 293 307 318 326 337 345
306 294 292 296 293 294 295 291 294 295 284 275 270 267 282 292 297 292 297 302 306 306 302 282 265 264 255 245 232 225 222 221 224 229 236 239 252 271 288 300 311 321 335 341
305 295 286 286 291 291 290 285 284 280 282 279 274 263 278 281 285 291 293 295 301 299 297 288 274 266 257 245 233 225 223 223 225 231 232 242 256 270 281 291 302 314 325 331
304 292 286 286 290 290 284 286 284 284 281 268 270 260 292 283 297 290 289 294 294 295 295 288 279 268 259 247 233 226 224 226 229 229 234 244 255 264 273 282 292 303 312 319
297 288 282 278 284 289 281 279 282 282 274 274 255 258 271 274 281 282 283 286 287 286 291 291 282 266 260 249 235 226 227 228 229 232 236 242 251 260 269 278 284 293 300 307
297 286 285 283 284 283 279 275 275 273 274 271 256 269 275 279 282 282 284 283 281 281 280 283 282 274 260 251 241 234 231 228 229 230 236 245 255 263 269 272 278 285 290 296
299 288 288 282 284 282 278 276 274 270 272 270 274 263 280 278 279 277 279 280 276 277 276 275 275 274 263 252 243 237 234 232 232 237 242 250 254 260 264 268 271 278 283 289
293 290 287 279 284 284 276 279 272 270 270 270 269 274 281 278 277 274 275 279 277 275 273 269 269 268 261 250 243 237 235 236 236 239 244 248 253 257 260 265 269 273 278 284
289 286 284 280 282 271 280 282 280 274 272 275 277 283 284 283 280 275 276 275 276 276 273 270 264 263 260 250 242 238 236 234 235 240 245 249 252 256 260 263 266 272 277 279
286 281 279 277 274 278 279 282 281 279 271 279 279 282 283 287 281 277 288 291 283 280 279 275 268 260 259 250 241 236 235 236 236 237 243 248 250 255 258 259 263 269 275 279
297 279 275 277 274 271 276 280 287 288 265 285 283 285 282 286 271 269 285 284 278 274 278 279 270 260 255 250 236 233 234 234 237 241 244 247 250 253 255 258 262 271 275 278
295 288 274 277 277 278 279 285 290 267 266 285 283 285 281 277 277 276 280 280 276 271 275 277 271 260 256 251 236 232 235 238 245 249 250 252 254 256 262 262 266 269 272 278
285 286 283 285 282 276 281 278 280 277 279 283 283 283 283 282 281 281 281 281 279 277 279 278 270 262 259 255 243 241 238 251 252 251 254 256 257 261 264 263 266 269 272 276
284 277 287 289 291 293 287 287 284 283 279 282 281 283 282 286 283 282 280 281 282 283 284 282 274 266 261 258 253 247 249 255 255 256 261 260 261 264 262 261 263 267 270 275
280 293 288 295 290 280 285 290 285 285 276 283 286 281 282 286 283 280 278 279 282 289 290 290 284 276 265 261 259 259 256 255 256 259 262 263 262 263 262 264 263 265 268 273
288 296 296 293 278 293 282 284 281 283 280 278 283 280 282 285 282 279 274 276 278 285 291 299 298 289 278 269 264 266 264 261 261 262 262 263 265 264 264 265 264 266 272 271
290 282 293 291 294 292 282 283 279 278 276 278 279 276 281 284 279 277 273 273 273 278 284 290 296 298 293 283 275 273 272 270 267 267 268 269 269 270 270 271 274 276 279 279